Roanoke, VA

11:42 AM EST on December 12, 2019 (GMT -0500)
Roanoke Regional-Woodrum

Weather History for KROA - October, 2019

Change the Weather History Date:

Wednesday, October 9, 2019

  Actual Average Record
Temperature  
Mean Temperature 64 °F 60 °F  
Max Temperature 73 °F 71 °F 92 °F (2007)
Min Temperature 55 °F 49 °F 27 °F (1978)
Degree Days  
Heating Degree Days 1 6  
Month to date heating degree days 12 48  
Since 1 July heating degree days 13 97  
Cooling Degree Days 0 1  
Month to date cooling degree days 71 11  
Year to date cooling degree days 1755 1197  
Growing Degree Days 14 (Base 50)    
Moisture  
Dew Point 51 °F    
Average Humidity 67    
Maximum Humidity 86    
Minimum Humidity 47    
Precipitation  
Precipitation 0.00 in 0.09 in 2.00 in (1947)
Month to date precipitation 0.63 0.82  
Year to date precipitation 32.69 32.84  
Snow  
Snow 0.00 in - - ()
Month to date snowfall 0.0  
Since 1 July snowfall T  
Since 1 September snowfall 0.0  
Snow Depth 0.00 in    
Sea Level Pressure  
Sea Level Pressure 30.21 in    
Wind  
Wind Speed 4 mph (NE)    
Max Wind Speed 10 mph    
Max Gust Speed 13 mph    
Visibility 10 miles    
Events      
T = Trace of Precipitation, MM = Missing Value Source: NWS Daily Summary

Daily Weather History Graph

Daily Weather History Graph

Search for Another Location

Airport or City:

Astronomy

Oct. 09, 2019 Rise Set
Actual Time 7:22 AM EDT 6:51 PM EDT
Civil Twilight 6:56 AM EDT 7:17 PM EDT
Nautical Twilight 6:25 AM EDT 7:47 PM EDT
Astronomical Twilight 5:55 AM EDT 8:18 PM EDT
Moon 5:16 PM EDT (10/9) 3:14 AM EDT (10/9)
Length of Visible Light 12h 21m
Length of Day
11h 29m
Waxing Gibbous, 85% of the Moon is Illuminated
Oct 9
Waxing Gibbous
Oct 13
Full
Oct 21
Last Quarter
Oct 27
New
Nov 4
First Quarter

Hourly Weather History & Observations

Time (EDT) Temp. Dew Point Humidity Pressure Visibility Wind Dir Wind Speed Gust Speed Precip Events Conditions
12:54 AM 55.9 °F 51.1 °F 84% 30.22 in 10.0 mi NE 6.9 mph - N/A   Overcast
1:54 AM 55.9 °F 52.0 °F 87% 30.22 in 10.0 mi NNE 5.8 mph - N/A   Overcast
2:54 AM 55.9 °F 51.1 °F 84% 30.21 in 10.0 mi NNE 6.9 mph - N/A   Overcast
3:54 AM 55.9 °F 51.1 °F 84% 30.21 in 10.0 mi NNE 5.8 mph - N/A   Overcast
4:54 AM 55.9 °F 51.1 °F 84% 30.21 in 10.0 mi NNE 3.5 mph - N/A   Overcast
5:54 AM 55.9 °F 50.0 °F 80% 30.22 in 10.0 mi North 5.8 mph - N/A   Overcast
6:54 AM 55.9 °F 50.0 °F 80% 30.23 in 10.0 mi North 5.8 mph - N/A   Overcast
7:54 AM 55.9 °F 51.1 °F 84% 30.24 in 10.0 mi North 4.6 mph - N/A   Overcast
8:54 AM 55.9 °F 51.1 °F 84% 30.26 in 10.0 mi NNE 5.8 mph - N/A   Overcast
9:54 AM 57.9 °F 50.0 °F 75% 30.27 in 10.0 mi NNE 8.1 mph - N/A   Overcast
10:54 AM 61.0 °F 50.0 °F 67% 30.26 in 10.0 mi North 10.4 mph - N/A   Scattered Clouds
11:54 AM 64.9 °F 50.0 °F 58% 30.24 in 10.0 mi Variable 6.9 mph - N/A   Partly Cloudy
12:54 PM 66.0 °F 48.9 °F 54% 30.22 in 10.0 mi NNE 6.9 mph - N/A   Partly Cloudy
1:54 PM 69.1 °F 48.9 °F 49% 30.19 in 10.0 mi Variable 4.6 mph - N/A   Partly Cloudy
2:54 PM 70.0 °F 51.1 °F 51% 30.17 in 10.0 mi Variable 3.5 mph - N/A   Clear
3:54 PM 71.1 °F 51.1 °F 49% 30.16 in 10.0 mi Calm Calm - N/A   Partly Cloudy
4:54 PM 71.1 °F 51.1 °F 49% 30.15 in 10.0 mi SE 3.5 mph - N/A   Scattered Clouds
5:54 PM 71.1 °F 52.0 °F 51% 30.15 in 10.0 mi ESE 5.8 mph - N/A   Scattered Clouds
6:54 PM 68.0 °F 52.0 °F 56% 30.17 in 10.0 mi SE 3.5 mph - N/A   Partly Cloudy
7:54 PM 66.9 °F 52.0 °F 59% 30.18 in 10.0 mi ESE 4.6 mph - N/A   Partly Cloudy
8:54 PM 61.0 °F 54.0 °F 78% 30.20 in 10.0 mi Calm Calm - N/A   Clear
9:54 PM 61.0 °F 55.0 °F 81% 30.22 in 10.0 mi Calm Calm - N/A   Overcast
10:54 PM 63.0 °F 55.0 °F 75% 30.23 in 10.0 mi South 3.5 mph - N/A   Overcast
11:54 PM 62.1 °F 53.1 °F 72% 30.24 in 10.0 mi SSE 6.9 mph - N/A   Overcast